Location: Newark
(51.5114°N, 0.0848°W)
Time: 21:45:24
(UTC+00:00)

N. Korean satellite - Pass Details

Date: 26 October 2019
Orbit: 456 x 506 km, 97.2° (Epoch: 18 November)

Event Time Altitude Azimuth Distance (km) Brightness Sun altitude
Rises 05:20:37 0° 22° (NNE) 2,578 10.5 -13.3°
Reaches altitude 10° 05:22:54 10° 34° (NE) 1,699 9.7 -13.0°
Maximum altitude 05:26:05 28° 95° (E) 970 9.0 -12.5°
Drops below altitude 10° 05:29:17 10° 156° (SSE) 1,706 9.7 -12.0°
Sets 05:31:35 0° 168° (SSE) 2,590 10.5 -11.6°
